contact:dominique.lefevre@mio.osupytheas.fr, maurice.libes@osupytheas.fr, didier.mallarino@osupytheas.fr
Project:EMSO http://www.emso-fr.org/EMSO-France
Depth: 2436.0 m
Title:EMSO Ligure Ouest : Data MII capteur AQUADOPP
Date,Latitude,Longitude,X_East,Y_North,Z_Up,Amplitude_X,Amplitude_Y,Amplitude_Z,Batterie,SoundSpeed,Heading,Pitch,Roll,Pressure,TIS,Speed,Direction
, degrees North, degrees East, m.s-1, m.s-1,m.s-1, 1, 1, 1, Volt, m.s-1, degree, degree, degree, dbar, degree_C, m.s-1, degree
2022-04-11T00:04:03,42.805,6.029,0.066,-0.036,0.003,101.0,102.0,99.0,13.4,1505.2,326.2,-0.8,1.9,2470.79,13.28,0.075,118.6
2022-04-11T00:07:03,42.805,6.029,0.037,-0.021,-0.004,99.0,101.0,101.0,13.3,1505.2,323.4,-0.8,1.8,2470.783,13.28,0.042,119.6
2022-04-11T00:10:03,42.805,6.029,0.027,-0.028,-0.024,103.0,101.0,99.0,13.3,1505.2,325.6,-0.8,1.8,2470.778,13.28,0.038,136.0
2022-04-11T00:13:03,42.805,6.029,0.04,-0.043,0.004,101.0,101.0,100.0,13.3,1505.2,328.2,-0.8,1.8,2470.78,13.28,0.058,137.1
2022-04-11T00:16:03,42.805,6.029,0.017,-0.038,-0.009,101.0,102.0,100.0,13.4,1505.2,325.1,-0.8,1.8,2470.779,13.28,0.041,155.9
2022-04-11T00:19:03,42.805,6.029,0.009,-0.019,0.011,100.0,104.0,100.0,13.4,1505.2,325.9,-0.8,1.8,2470.785,13.28,0.021,154.7
2022-04-11T00:22:03,42.805,6.029,0.031,-0.017,-0.007,103.0,100.0,101.0,13.4,1505.2,324.1,-0.7,1.8,2470.776,13.28,0.035,118.7
2022-04-11T00:25:03,42.805,6.029,0.039,-0.051,-0.014,102.0,101.0,100.0,13.4,1505.2,329.8,-0.8,1.8,2470.788,13.28,0.064,142.6
2022-04-11T00:28:03,42.805,6.029,0.028,-0.019,0.001,101.0,101.0,101.0,13.4,1505.2,326.4,-0.8,1.8,2470.795,13.28,0.033,124.2
2022-04-11T00:31:03,42.805,6.029,0.026,-0.024,0.015,102.0,103.0,100.0,13.4,1505.2,331.8,-0.7,1.8,2470.8,13.28,0.035,132.7
2022-04-11T00:34:03,42.805,6.029,0.05,-0.021,0.019,100.0,103.0,101.0,13.4,1505.2,325.3,-0.8,1.8,2470.819,13.28,0.054,112.8
2022-04-11T00:37:03,42.805,6.029,0.001,-0.02,0.0,101.0,103.0,101.0,13.3,1505.2,333.2,-0.8,1.8,2470.787,13.28,0.02,177.1
2022-04-11T00:40:03,42.805,6.029,0.033,-0.03,0.007,103.0,101.0,100.0,13.4,1505.2,325.0,-0.8,1.8,2470.783,13.28,0.044,132.3
2022-04-11T00:43:03,42.805,6.029,0.03,-0.034,-0.014,101.0,102.0,100.0,13.4,1505.2,327.0,-0.7,1.8,2470.785,13.28,0.045,138.6
2022-04-11T00:46:03,42.805,6.029,0.034,-0.025,0.012,100.0,102.0,100.0,13.4,1505.2,332.5,-0.7,1.8,2470.778,13.28,0.042,126.3
2022-04-11T00:49:03,42.805,6.029,0.038,-0.032,-0.012,102.0,102.0,100.0,13.3,1505.2,331.8,-0.7,1.8,2470.74,13.28,0.049,130.1
2022-04-11T00:52:03,42.805,6.029,0.034,-0.02,0.031,102.0,100.0,101.0,13.3,1505.2,325.0,-0.8,1.8,2470.789,13.28,0.039,120.5
2022-04-11T00:55:03,42.805,6.029,0.038,-0.018,0.0,101.0,102.0,101.0,13.4,1505.2,328.7,-0.8,1.8,2470.793,13.28,0.042,115.3
2022-04-11T00:58:03,42.805,6.029,0.056,-0.037,0.009,101.0,103.0,99.0,13.4,1505.2,322.7,-0.8,1.8,2470.807,13.28,0.067,123.5
2022-04-11T01:04:03,42.805,6.029,0.013,-0.027,-0.008,102.0,103.0,100.0,13.4,1505.2,329.5,-0.8,1.8,2470.83,13.28,0.029,154.3
2022-04-11T01:07:04,42.805,6.029,0.027,-0.024,-0.007,102.0,100.0,100.0,13.4,1505.2,326.6,-0.8,1.9,2470.823,13.28,0.036,131.6
2022-04-11T01:10:03,42.805,6.029,0.038,0.0,0.015,102.0,103.0,101.0,13.4,1505.2,325.3,-0.8,1.8,2470.815,13.28,0.038,90.0
2022-04-11T01:13:03,42.805,6.029,0.033,-0.029,0.023,101.0,101.0,101.0,13.4,1505.2,333.0,-0.7,1.8,2470.822,13.28,0.043,131.3
2022-04-11T01:16:03,42.805,6.029,0.041,-0.022,-0.009,103.0,103.0,100.0,13.4,1505.2,329.9,-0.8,1.8,2470.831,13.28,0.046,118.2
2022-04-11T01:19:03,42.805,6.029,0.029,-0.024,-0.002,102.0,101.0,100.0,13.3,1505.2,331.0,-0.7,1.8,2470.783,13.28,0.037,129.6
2022-04-11T01:22:03,42.805,6.029,0.041,-0.042,0.004,102.0,102.0,101.0,13.4,1505.2,332.1,-0.8,1.8,2470.835,13.28,0.058,135.7
2022-04-11T01:25:03,42.805,6.029,0.057,-0.037,0.0,102.0,103.0,101.0,13.4,1505.2,324.5,-0.7,1.8,2470.807,13.28,0.067,123.0
2022-04-11T01:28:03,42.805,6.029,0.053,-0.03,0.016,102.0,104.0,100.0,13.4,1505.2,328.9,-0.8,1.8,2470.787,13.28,0.06,119.5
2022-04-11T01:31:03,42.805,6.029,0.05,-0.047,0.003,102.0,103.0,100.0,13.4,1505.2,330.9,-0.8,1.8,2470.828,13.28,0.068,133.2
2022-04-11T01:34:03,42.805,6.029,0.054,-0.028,0.035,102.0,103.0,101.0,13.4,1505.2,323.4,-0.8,1.8,2470.817,13.28,0.06,117.4
2022-04-11T01:37:03,42.805,6.029,0.043,-0.043,0.009,102.0,102.0,100.0,13.3,1505.2,327.9,-0.7,1.8,2470.832,13.28,0.06,135.0
2022-04-11T01:40:03,42.805,6.029,0.03,-0.05,-0.03,103.0,102.0,100.0,13.3,1505.2,332.7,-0.8,1.8,2470.852,13.28,0.058,149.0
2022-04-11T01:43:03,42.805,6.029,0.029,-0.02,-0.017,102.0,104.0,100.0,13.3,1505.2,331.8,-0.7,1.8,2470.822,13.28,0.035,124.6
2022-04-11T01:46:03,42.805,6.029,0.033,-0.041,-0.039,101.0,104.0,102.0,13.4,1505.2,328.7,-0.8,1.8,2470.832,13.28,0.052,141.2
2022-04-11T01:49:03,42.805,6.029,0.027,-0.021,-0.013,102.0,101.0,101.0,13.3,1505.2,327.5,-0.7,1.8,2470.795,13.28,0.034,127.9
2022-04-11T01:52:03,42.805,6.029,0.003,-0.035,-0.016,103.0,102.0,100.0,13.3,1505.2,328.8,-0.8,1.8,2470.84,13.28,0.035,175.1
2022-04-11T01:55:03,42.805,6.029,0.048,-0.041,0.018,103.0,102.0,100.0,13.4,1505.2,330.0,-0.7,1.8,2470.809,13.28,0.063,130.5
2022-04-11T01:58:03,42.805,6.029,0.045,-0.031,0.002,104.0,102.0,100.0,13.4,1505.2,322.0,-0.8,1.8,2470.824,13.28,0.054,124.6
2022-04-11T02:04:03,42.805,6.029,0.021,-0.025,0.001,103.0,103.0,100.0,13.4,1505.2,331.9,-0.7,1.8,2470.843,13.28,0.032,140.0
2022-04-11T02:07:03,42.805,6.029,0.035,-0.008,0.004,103.0,101.0,100.0,13.4,1505.2,324.4,-0.8,1.8,2470.828,13.28,0.035,102.9
2022-04-11T02:10:03,42.805,6.029,0.048,-0.023,0.017,103.0,102.0,101.0,13.4,1505.2,325.1,-0.8,1.8,2470.872,13.28,0.053,115.6
2022-04-11T02:13:03,42.805,6.029,0.035,-0.035,0.034,103.0,102.0,100.0,13.3,1505.2,325.3,-0.7,1.8,2470.81,13.28,0.049,135.0
2022-04-11T02:16:03,42.805,6.029,0.055,-0.008,-0.005,102.0,102.0,101.0,13.4,1505.2,324.5,-0.8,1.8,2470.831,13.28,0.055,98.3
2022-04-11T02:19:03,42.805,6.029,0.042,-0.038,0.0,101.0,103.0,101.0,13.3,1505.2,328.7,-0.8,1.8,2470.855,13.28,0.056,132.1
2022-04-11T02:22:03,42.805,6.029,0.023,-0.01,0.015,101.0,102.0,100.0,13.3,1505.2,327.4,-0.7,1.8,2470.825,13.28,0.025,113.5
2022-04-11T02:25:03,42.805,6.029,0.031,-0.02,0.025,103.0,101.0,100.0,13.4,1505.2,329.7,-0.7,1.8,2470.837,13.28,0.036,122.8
2022-04-11T02:28:03,42.805,6.029,0.054,-0.026,0.023,101.0,102.0,100.0,13.3,1505.2,327.7,-0.8,1.8,2470.834,13.28,0.059,115.7
2022-04-11T02:31:03,42.805,6.029,0.03,-0.013,0.044,102.0,102.0,100.0,13.3,1505.2,329.9,-0.8,1.8,2470.853,13.28,0.032,113.4
2022-04-11T02:34:03,42.805,6.029,0.028,-0.041,-0.007,101.0,101.0,101.0,13.4,1505.2,331.2,-0.7,1.8,2470.818,13.28,0.049,145.7
2022-04-11T02:37:03,42.805,6.029,0.017,-0.027,-0.012,102.0,101.0,100.0,13.4,1505.2,326.0,-0.8,1.9,2470.807,13.28,0.031,147.8
2022-04-11T02:40:03,42.805,6.029,0.028,-0.044,-0.025,101.0,101.0,101.0,13.4,1505.2,327.8,-0.8,1.8,2470.847,13.28,0.052,147.5
2022-04-11T02:43:03,42.805,6.029,0.041,-0.016,0.049,101.0,102.0,100.0,13.4,1505.2,329.5,-0.8,1.8,2470.859,13.28,0.044,111.3
2022-04-11T02:46:03,42.805,6.029,0.05,-0.041,-0.006,100.0,102.0,101.0,13.3,1505.2,324.7,-0.8,1.8,2470.88,13.28,0.064,129.3
2022-04-11T02:49:03,42.805,6.029,0.041,-0.024,-0.003,102.0,101.0,100.0,13.4,1505.2,332.5,-0.7,1.8,2470.865,13.28,0.047,120.3
2022-04-11T02:52:03,42.805,6.029,0.032,-0.026,0.017,102.0,101.0,100.0,13.4,1505.2,322.9,-0.7,1.8,2470.836,13.28,0.041,129.1
2022-04-11T02:55:03,42.805,6.029,0.021,-0.033,-0.016,102.0,100.0,100.0,13.4,1505.2,329.1,-0.8,1.8,2470.844,13.28,0.039,147.5
2022-04-11T02:58:03,42.805,6.029,0.022,-0.028,-0.001,102.0,105.0,101.0,13.4,1505.2,328.4,-0.7,1.8,2470.838,13.28,0.035,141.8
2022-04-11T03:04:03,42.805,6.029,0.023,-0.02,-0.013,101.0,101.0,101.0,13.4,1505.2,328.2,-0.7,1.8,2470.876,13.28,0.03,131.0
2022-04-11T03:07:03,42.805,6.029,0.051,-0.052,-0.019,102.0,101.0,99.0,13.4,1505.2,327.6,-0.8,1.8,2470.849,13.28,0.072,135.5
2022-04-11T03:10:03,42.805,6.029,0.005,-0.029,-0.004,101.0,102.0,100.0,13.3,1505.2,332.2,-0.8,1.8,2470.861,13.28,0.029,170.2
2022-04-11T03:13:03,42.805,6.029,0.022,-0.035,-0.009,100.0,101.0,101.0,13.3,1505.2,324.9,-0.7,1.8,2470.83,13.28,0.041,147.8
2022-04-11T03:16:03,42.805,6.029,0.048,-0.037,0.0,102.0,101.0,99.0,13.4,1505.2,327.0,-0.8,1.8,2470.874,13.28,0.06,127.6
2022-04-11T03:19:03,42.805,6.029,0.023,-0.024,-0.012,100.0,102.0,101.0,13.3,1505.2,328.6,-0.8,1.9,2470.868,13.28,0.033,136.2
2022-04-11T03:22:03,42.805,6.029,0.005,-0.033,0.009,100.0,103.0,101.0,13.4,1505.2,329.1,-0.7,1.8,2470.866,13.28,0.033,171.4
2022-04-11T03:25:03,42.805,6.029,0.023,-0.056,-0.054,100.0,104.0,100.0,13.3,1505.2,331.8,-0.8,1.8,2470.872,13.28,0.06,157.7
2022-04-11T03:28:03,42.805,6.029,0.02,-0.027,-0.015,100.0,103.0,101.0,13.4,1505.2,325.4,-0.8,1.8,2470.856,13.28,0.033,143.5
2022-04-11T03:31:03,42.805,6.029,0.017,-0.034,-0.008,100.0,102.0,100.0,13.4,1505.2,327.9,-0.8,1.8,2470.871,13.28,0.038,153.4
2022-04-11T03:34:03,42.805,6.029,0.031,-0.021,-0.003,100.0,101.0,100.0,13.4,1505.2,326.4,-0.8,1.8,2470.83,13.28,0.037,124.1
2022-04-11T03:37:03,42.805,6.029,0.009,-0.023,0.006,101.0,101.0,99.0,13.4,1505.2,328.4,-0.8,1.8,2470.834,13.28,0.024,158.6
2022-04-11T03:40:03,42.805,6.029,0.022,-0.024,0.011,100.0,101.0,101.0,13.4,1505.2,328.9,-0.8,1.9,2470.833,13.28,0.032,137.5
2022-04-11T03:43:03,42.805,6.029,0.027,-0.036,-0.035,100.0,103.0,100.0,13.3,1505.2,324.8,-0.8,1.8,2470.811,13.28,0.045,143.1
2022-04-11T03:46:03,42.805,6.029,0.005,0.0,0.013,101.0,100.0,100.0,13.3,1505.2,332.7,-0.7,1.8,2470.836,13.28,0.005,90.0
2022-04-11T03:49:03,42.805,6.029,0.027,-0.032,-0.011,101.0,100.0,100.0,13.4,1505.2,326.5,-0.8,1.8,2470.822,13.28,0.041,139.8
2022-04-11T03:52:03,42.805,6.029,0.042,-0.055,-0.003,100.0,102.0,101.0,13.4,1505.2,331.2,-0.7,1.8,2470.819,13.28,0.069,142.6
2022-04-11T03:55:03,42.805,6.029,0.045,-0.027,-0.009,101.0,101.0,100.0,13.3,1505.2,326.3,-0.8,1.8,2470.813,13.28,0.052,121.0
2022-04-11T03:58:03,42.805,6.029,0.043,-0.023,-0.018,100.0,102.0,99.0,13.4,1505.2,328.5,-0.7,1.8,2470.81,13.28,0.048,118.1
2022-04-11T04:04:03,42.805,6.029,0.026,-0.03,0.003,101.0,100.0,100.0,13.4,1505.2,326.6,-0.8,1.8,2470.839,13.28,0.039,139.1
2022-04-11T04:07:03,42.805,6.029,0.033,-0.031,0.01,100.0,101.0,100.0,13.4,1505.2,322.7,-0.8,1.8,2470.829,13.28,0.045,133.2
2022-04-11T04:10:03,42.805,6.029,0.048,-0.039,-0.015,101.0,102.0,100.0,13.4,1505.2,324.8,-0.8,1.8,2470.856,13.28,0.061,129.1
2022-04-11T04:13:03,42.805,6.029,0.028,-0.025,-0.003,101.0,101.0,100.0,13.3,1505.2,325.3,-0.8,1.9,2470.831,13.28,0.037,131.8
2022-04-11T04:16:03,42.805,6.029,0.037,-0.042,-0.03,100.0,101.0,100.0,13.4,1505.2,325.3,-0.7,1.8,2470.8,13.28,0.055,138.6
2022-04-11T04:19:03,42.805,6.029,0.012,-0.015,0.015,101.0,103.0,100.0,13.4,1505.2,329.9,-0.7,1.8,2470.776,13.28,0.019,141.3
2022-04-11T04:22:03,42.805,6.029,0.021,-0.035,-0.012,101.0,100.0,100.0,13.3,1505.2,331.0,-0.7,1.8,2470.804,13.28,0.04,149.0
2022-04-11T04:25:03,42.805,6.029,0.006,-0.004,-0.002,101.0,101.0,100.0,13.3,1505.2,325.5,-0.7,1.9,2470.777,13.28,0.007,123.7
2022-04-11T04:28:03,42.805,6.029,0.059,-0.029,0.042,100.0,102.0,100.0,13.3,1505.2,333.2,-0.8,1.8,2470.823,13.28,0.065,116.2
2022-04-11T04:31:03,42.805,6.029,0.028,-0.017,0.004,101.0,101.0,99.0,13.4,1505.2,324.3,-0.7,1.8,2470.802,13.28,0.032,121.3
2022-04-11T04:34:03,42.805,6.029,0.026,-0.051,-0.001,102.0,102.0,100.0,13.4,1505.2,326.7,-0.7,1.8,2470.778,13.28,0.057,153.0
2022-04-11T04:37:03,42.805,6.029,0.064,-0.039,-0.025,102.0,99.0,100.0,13.3,1505.2,331.0,-0.8,1.8,2470.804,13.28,0.074,121.4
2022-04-11T04:40:03,42.805,6.029,0.023,-0.046,-0.006,100.0,101.0,99.0,13.4,1505.2,328.8,-0.7,1.8,2470.778,13.28,0.051,153.4
2022-04-11T04:43:03,42.805,6.029,0.015,-0.046,-0.035,100.0,100.0,100.0,13.4,1505.2,328.5,-0.8,1.8,2470.78,13.28,0.048,161.9
2022-04-11T04:46:03,42.805,6.029,0.035,-0.015,-0.017,100.0,101.0,100.0,13.4,1505.2,330.0,-0.8,1.8,2470.765,13.28,0.038,113.2
2022-04-11T04:49:03,42.805,6.029,0.018,-0.023,-0.009,101.0,101.0,100.0,13.4,1505.2,323.7,-0.8,1.8,2470.777,13.28,0.029,142.0
2022-04-11T04:52:03,42.805,6.029,0.035,-0.02,0.015,101.0,101.0,100.0,13.3,1505.2,332.3,-0.8,1.8,2470.771,13.28,0.04,119.7
2022-04-11T04:55:03,42.805,6.029,0.045,-0.024,-0.004,101.0,102.0,100.0,13.4,1505.2,322.9,-0.8,1.8,2470.732,13.28,0.051,118.1
2022-04-11T04:58:03,42.805,6.029,0.029,-0.029,0.027,99.0,102.0,101.0,13.4,1505.2,323.7,-0.7,1.8,2470.764,13.28,0.041,135.0
2022-04-11T05:04:03,42.805,6.029,0.023,-0.035,-0.019,101.0,102.0,100.0,13.4,1505.2,329.6,-0.8,1.8,2470.792,13.28,0.041,146.7
2022-04-11T05:07:03,42.805,6.029,0.049,-0.022,-0.017,101.0,101.0,100.0,13.4,1505.2,324.9,-0.8,1.8,2470.799,13.28,0.053,114.2
2022-04-11T05:10:03,42.805,6.029,0.026,-0.029,0.008,100.0,101.0,100.0,13.3,1505.2,329.3,-0.7,1.8,2470.773,13.28,0.038,138.1
2022-04-11T05:13:03,42.805,6.029,0.051,-0.023,-0.013,100.0,101.0,100.0,13.4,1505.2,322.8,-0.8,1.8,2470.807,13.28,0.055,114.3
2022-04-11T05:16:03,42.805,6.029,0.018,-0.044,-0.026,101.0,101.0,100.0,13.4,1505.2,328.2,-0.8,1.8,2470.838,13.28,0.047,157.8
2022-04-11T05:19:03,42.805,6.029,0.03,-0.029,-0.011,100.0,100.0,100.0,13.4,1505.2,331.3,-0.7,1.8,2470.851,13.28,0.041,134.0
2022-04-11T05:22:03,42.805,6.029,0.035,-0.026,-0.022,102.0,102.0,100.0,13.4,1505.2,327.3,-0.8,1.8,2470.827,13.28,0.043,126.6
2022-04-11T05:25:03,42.805,6.029,0.032,-0.018,0.001,102.0,101.0,99.0,13.4,1505.2,327.7,-0.7,1.8,2470.829,13.28,0.036,119.4
2022-04-11T05:28:03,42.805,6.029,0.006,-0.026,-0.012,101.0,101.0,101.0,13.3,1505.2,332.3,-0.8,1.8,2470.847,13.28,0.026,167.0
2022-04-11T05:31:03,42.805,6.029,0.033,-0.021,0.0,101.0,102.0,99.0,13.4,1505.2,328.2,-0.8,1.8,2470.859,13.28,0.039,122.5
2022-04-11T05:34:03,42.805,6.029,0.012,-0.028,-0.028,100.0,101.0,100.0,13.3,1505.2,327.4,-0.7,1.8,2470.855,13.28,0.03,156.8
2022-04-11T05:37:03,42.805,6.029,0.048,-0.038,0.022,100.0,103.0,100.0,13.4,1505.2,326.6,-0.8,1.9,2470.843,13.28,0.061,128.4
2022-04-11T05:40:03,42.805,6.029,0.031,-0.012,0.053,102.0,101.0,100.0,13.4,1505.2,328.6,-0.8,1.8,2470.845,13.28,0.033,111.2
2022-04-11T05:43:03,42.805,6.029,0.026,-0.037,-0.014,102.0,101.0,100.0,13.3,1505.2,332.2,-0.8,1.8,2470.826,13.28,0.045,144.9
2022-04-11T05:46:03,42.805,6.029,0.032,-0.017,-0.008,99.0,101.0,101.0,13.4,1505.2,324.5,-0.8,1.8,2470.883,13.28,0.036,118.0
2022-04-11T05:49:03,42.805,6.029,0.053,-0.023,0.022,100.0,102.0,100.0,13.3,1505.2,328.5,-0.8,1.8,2470.84,13.28,0.057,113.5
2022-04-11T05:52:03,42.805,6.029,0.021,-0.024,-0.012,102.0,101.0,100.0,13.4,1505.2,328.7,-0.8,1.8,2470.818,13.28,0.031,138.8
2022-04-11T05:55:03,42.805,6.029,0.05,-0.009,0.038,100.0,102.0,101.0,13.4,1505.2,323.8,-0.8,1.8,2470.824,13.28,0.05,100.2
2022-04-11T05:58:03,42.805,6.029,0.01,-0.023,0.022,101.0,104.0,100.0,13.4,1505.2,327.4,-0.8,1.8,2470.827,13.28,0.025,156.5
2022-04-11T06:04:03,42.805,6.029,0.028,-0.017,0.01,100.0,101.0,100.0,13.4,1505.2,324.7,-0.7,1.8,2470.92,13.28,0.032,121.3
2022-04-11T06:07:03,42.805,6.029,0.021,-0.015,0.001,101.0,101.0,100.0,13.4,1505.2,324.9,-0.8,1.8,2470.854,13.28,0.025,125.5
2022-04-11T06:10:03,42.805,6.029,0.015,-0.043,-0.025,99.0,102.0,100.0,13.4,1505.2,331.0,-0.8,1.8,2470.885,13.28,0.045,160.8
2022-04-11T06:13:03,42.805,6.029,0.034,-0.003,0.02,101.0,103.0,99.0,13.4,1505.2,325.8,-0.8,1.8,2470.908,13.28,0.034,95.0
2022-04-11T06:16:03,42.805,6.029,0.006,-0.005,0.019,100.0,104.0,99.0,13.4,1505.2,329.0,-0.8,1.9,2470.875,13.28,0.007,129.8
2022-04-11T06:19:03,42.805,6.029,0.06,-0.032,-0.003,101.0,103.0,101.0,13.3,1505.2,323.5,-0.7,1.9,2470.895,13.28,0.067,118.1
2022-04-11T06:22:03,42.805,6.029,0.025,-0.031,0.007,101.0,102.0,100.0,13.3,1505.2,327.8,-0.7,1.8,2470.844,13.28,0.039,141.1
2022-04-11T06:25:03,42.805,6.029,0.05,-0.036,-0.021,101.0,102.0,100.0,13.3,1505.2,329.5,-0.8,1.8,2470.873,13.28,0.061,125.8
2022-04-11T06:28:03,42.805,6.029,0.009,-0.013,0.022,100.0,102.0,100.0,13.4,1505.2,331.6,-0.8,1.8,2470.888,13.28,0.015,145.3
2022-04-11T06:31:03,42.805,6.029,0.04,-0.028,0.006,101.0,101.0,100.0,13.3,1505.2,323.9,-0.7,1.8,2470.872,13.28,0.048,125.0
2022-04-11T06:34:03,42.805,6.029,0.028,-0.028,0.017,101.0,101.0,101.0,13.4,1505.2,328.9,-0.8,1.8,2470.814,13.28,0.039,135.0
2022-04-11T06:37:03,42.805,6.029,0.028,-0.027,-0.007,100.0,101.0,100.0,13.4,1505.2,324.3,-0.8,1.8,2470.829,13.28,0.038,134.0
2022-04-11T06:40:03,42.805,6.029,0.036,-0.017,0.009,103.0,102.0,100.0,13.4,1505.2,326.3,-0.8,1.8,2470.838,13.28,0.039,115.3
2022-04-11T06:43:03,42.805,6.029,0.009,-0.004,-0.003,102.0,102.0,99.0,13.4,1505.2,330.4,-0.8,1.8,2470.853,13.28,0.009,114.0
2022-04-11T06:46:03,42.805,6.029,0.026,-0.013,0.009,102.0,101.0,99.0,13.4,1505.2,323.8,-0.8,1.8,2470.844,13.28,0.029,116.6
2022-04-11T06:49:03,42.805,6.029,0.032,-0.027,-0.017,103.0,102.0,99.0,13.4,1505.2,328.8,-0.7,1.8,2470.803,13.28,0.041,130.2
2022-04-11T06:52:03,42.805,6.029,0.022,-0.03,0.004,101.0,101.0,100.0,13.4,1505.2,326.7,-0.8,1.8,2470.839,13.28,0.037,143.7
2022-04-11T06:55:03,42.805,6.029,0.04,-0.038,-0.01,101.0,101.0,100.0,13.4,1505.2,324.4,-0.8,1.8,2470.841,13.28,0.055,133.5
2022-04-11T06:58:03,42.805,6.029,0.067,-0.015,0.067,102.0,101.0,100.0,13.4,1505.2,325.2,-0.8,1.8,2470.824,13.28,0.068,102.6
2022-04-11T07:04:03,42.805,6.029,0.035,-0.039,0.018,102.0,102.0,100.0,13.4,1505.2,326.3,-0.8,1.8,2470.851,13.28,0.052,138.1
2022-04-11T07:07:03,42.805,6.029,0.043,-0.039,-0.001,101.0,103.0,100.0,13.4,1505.2,325.2,-0.8,1.8,2470.847,13.28,0.058,132.2
2022-04-11T07:10:03,42.805,6.029,0.043,-0.024,0.006,102.0,102.0,99.0,13.3,1505.2,325.8,-0.8,1.8,2470.825,13.28,0.049,119.2
2022-04-11T07:13:03,42.805,6.029,0.023,-0.033,0.007,100.0,101.0,100.0,13.4,1505.2,325.5,-0.7,1.8,2470.832,13.28,0.04,145.1
2022-04-11T07:16:03,42.805,6.029,0.053,-0.031,0.029,101.0,101.0,100.0,13.4,1505.2,327.2,-0.7,1.8,2470.823,13.28,0.061,120.3
2022-04-11T07:19:03,42.805,6.029,0.052,-0.017,0.015,101.0,101.0,101.0,13.4,1505.2,321.4,-0.8,1.8,2470.846,13.28,0.054,108.1
2022-04-11T07:22:03,42.805,6.029,0.035,-0.004,0.045,101.0,102.0,101.0,13.4,1505.2,326.6,-0.7,1.9,2470.847,13.28,0.035,96.5
2022-04-11T07:25:03,42.805,6.029,0.042,-0.044,-0.024,101.0,100.0,101.0,13.3,1505.2,326.8,-0.7,1.8,2470.821,13.28,0.06,136.3
2022-04-11T07:28:03,42.805,6.029,0.03,-0.014,0.005,101.0,101.0,101.0,13.4,1505.2,325.2,-0.7,1.8,2470.844,13.28,0.033,115.0
2022-04-11T07:31:03,42.805,6.029,0.002,-0.008,-0.019,100.0,103.0,102.0,13.4,1505.2,325.2,-0.7,1.8,2470.831,13.28,0.008,166.0
2022-04-11T07:34:03,42.805,6.029,0.036,-0.035,0.003,102.0,101.0,100.0,13.4,1505.2,329.4,-0.8,1.8,2470.836,13.28,0.05,134.2
2022-04-11T07:37:03,42.805,6.029,0.019,-0.018,0.001,101.0,102.0,101.0,13.4,1505.2,326.0,-0.7,1.8,2470.809,13.28,0.026,133.5
2022-04-11T07:40:03,42.805,6.029,0.023,-0.014,0.006,101.0,101.0,100.0,13.4,1505.2,323.8,-0.8,1.8,2470.817,13.28,0.026,121.3
2022-04-11T07:43:03,42.805,6.029,0.034,-0.021,-0.017,101.0,102.0,100.0,13.4,1505.2,326.9,-0.7,1.8,2470.827,13.28,0.039,121.7
2022-04-11T07:46:03,42.805,6.029,0.047,-0.012,0.008,101.0,102.0,100.0,13.4,1505.2,322.7,-0.7,1.8,2470.81,13.28,0.048,104.3
2022-04-11T07:49:03,42.805,6.029,0.006,-0.01,0.014,102.0,100.0,101.0,13.3,1505.2,326.9,-0.7,1.8,2470.842,13.28,0.011,149.0
2022-04-11T07:52:03,42.805,6.029,0.01,-0.053,-0.042,101.0,103.0,100.0,13.4,1505.2,326.8,-0.8,1.8,2470.829,13.28,0.053,169.3
2022-04-11T07:55:03,42.805,6.029,0.019,-0.031,-0.008,101.0,102.0,100.0,13.4,1505.2,331.1,-0.7,1.8,2470.789,13.28,0.036,148.5
2022-04-11T07:58:03,42.805,6.029,0.021,-0.031,-0.006,102.0,100.0,100.0,13.4,1505.2,327.7,-0.8,1.8,2470.843,13.28,0.037,145.9
2022-04-11T08:04:03,42.805,6.029,0.045,-0.016,0.045,101.0,102.0,100.0,13.4,1505.2,324.4,-0.8,1.8,2470.853,13.28,0.047,109.6
2022-04-11T08:07:03,42.805,6.029,0.041,-0.026,0.016,101.0,104.0,101.0,13.4,1505.2,324.2,-0.8,1.8,2470.81,13.28,0.048,122.4
2022-04-11T08:10:03,42.805,6.029,0.045,-0.021,-0.002,102.0,102.0,100.0,13.3,1505.2,330.1,-0.7,1.8,2470.845,13.28,0.049,115.0
2022-04-11T08:13:03,42.805,6.029,0.054,-0.027,-0.011,101.0,104.0,100.0,13.4,1505.2,327.4,-0.7,1.8,2470.812,13.28,0.06,116.6
2022-04-11T08:16:03,42.805,6.029,0.033,-0.021,-0.016,101.0,102.0,101.0,13.4,1505.2,325.3,-0.7,1.8,2470.84,13.28,0.039,122.5
2022-04-11T08:19:03,42.805,6.029,0.065,-0.004,0.031,99.0,100.0,101.0,13.4,1505.2,323.8,-0.7,1.8,2470.809,13.28,0.065,93.5
2022-04-11T08:22:03,42.805,6.029,0.035,-0.015,0.017,101.0,102.0,101.0,13.4,1505.2,328.8,-0.8,1.8,2470.789,13.28,0.038,113.2
2022-04-11T08:25:03,42.805,6.029,0.058,-0.026,-0.016,101.0,102.0,101.0,13.3,1505.2,330.0,-0.8,1.8,2470.821,13.28,0.063,114.1
2022-04-11T08:28:03,42.805,6.029,0.052,-0.013,0.029,103.0,103.0,100.0,13.4,1505.2,325.2,-0.8,1.8,2470.781,13.28,0.053,104.0
2022-04-11T08:31:03,42.805,6.029,0.072,-0.01,0.02,101.0,102.0,101.0,13.4,1505.2,327.5,-0.8,1.8,2470.815,13.28,0.072,97.9
2022-04-11T08:34:03,42.805,6.029,0.017,-0.031,-0.007,100.0,103.0,100.0,13.4,1505.2,330.2,-0.7,1.8,2470.814,13.28,0.035,151.3
2022-04-11T08:37:03,42.805,6.029,0.054,-0.021,0.051,100.0,103.0,101.0,13.4,1505.2,329.6,-0.7,1.8,2470.818,13.28,0.057,111.2
2022-04-11T08:40:03,42.805,6.029,0.05,-0.047,0.011,101.0,101.0,100.0,13.4,1505.2,330.1,-0.8,1.8,2470.819,13.28,0.068,133.2
2022-04-11T08:43:03,42.805,6.029,0.034,-0.013,-0.027,101.0,102.0,100.0,13.4,1505.2,327.9,-0.8,1.8,2470.771,13.28,0.036,110.9
2022-04-11T08:46:03,42.805,6.029,0.008,-0.025,0.029,101.0,101.0,100.0,13.4,1505.2,330.3,-0.8,1.8,2470.834,13.28,0.026,162.3
2022-04-11T08:49:03,42.805,6.029,0.025,-0.025,0.007,101.0,101.0,101.0,13.4,1505.2,332.3,-0.7,1.8,2470.843,13.28,0.035,135.0
2022-04-11T08:52:03,42.805,6.029,0.022,-0.022,0.009,100.0,101.0,101.0,13.4,1505.2,326.8,-0.7,1.8,2470.814,13.28,0.031,135.0
2022-04-11T08:55:03,42.805,6.029,0.029,-0.002,0.004,102.0,103.0,101.0,13.4,1505.2,325.3,-0.8,1.8,2470.77,13.28,0.029,93.9
2022-04-11T08:58:03,42.805,6.029,0.007,-0.013,0.008,101.0,102.0,101.0,13.4,1505.2,326.2,-0.8,1.8,2470.809,13.28,0.014,151.7
2022-04-11T09:04:03,42.805,6.029,0.02,-0.033,0.0,101.0,103.0,100.0,13.4,1505.2,325.0,-0.8,1.8,2470.813,13.28,0.038,148.8
2022-04-11T09:07:03,42.805,6.029,0.031,-0.017,-0.025,101.0,102.0,99.0,13.3,1505.2,326.5,-0.8,1.8,2470.825,13.28,0.035,118.7
2022-04-11T09:10:03,42.805,6.029,0.04,-0.015,0.018,102.0,102.0,100.0,13.3,1505.2,323.8,-0.8,1.8,2470.83,13.28,0.042,110.6
2022-04-11T09:13:03,42.805,6.029,0.043,-0.03,0.011,102.0,101.0,99.0,13.4,1505.2,325.1,-0.8,1.8,2470.813,13.28,0.052,124.9
2022-04-11T09:16:03,42.805,6.029,0.039,-0.026,0.015,100.0,104.0,100.0,13.4,1505.2,325.3,-0.8,1.8,2470.816,13.28,0.046,123.7
2022-04-11T09:19:03,42.805,6.029,0.025,-0.03,0.01,101.0,103.0,101.0,13.4,1505.2,324.1,-0.7,1.8,2470.794,13.28,0.039,140.2
2022-04-11T09:22:03,42.805,6.029,0.019,-0.014,-0.014,101.0,105.0,100.0,13.4,1505.2,330.8,-0.8,1.9,2470.773,13.28,0.023,126.4
2022-04-11T09:25:03,42.805,6.029,0.039,-0.028,0.004,103.0,100.0,100.0,13.3,1505.2,328.9,-0.8,1.8,2470.737,13.28,0.048,125.7
2022-04-11T09:28:03,42.805,6.029,0.034,-0.028,0.012,100.0,102.0,101.0,13.3,1505.2,327.6,-0.7,1.8,2470.776,13.28,0.044,129.5
2022-04-11T09:31:03,42.805,6.029,0.03,-0.03,0.035,101.0,99.0,101.0,13.3,1505.2,328.8,-0.8,1.8,2470.767,13.28,0.042,135.0
2022-04-11T09:34:03,42.805,6.029,0.045,-0.005,0.021,101.0,101.0,99.0,13.4,1505.2,322.1,-0.7,1.8,2470.759,13.28,0.045,96.3
2022-04-11T09:37:03,42.805,6.029,0.039,-0.033,-0.024,101.0,100.0,100.0,13.4,1505.2,331.8,-0.7,1.8,2470.738,13.28,0.051,130.2
2022-04-11T09:40:03,42.805,6.029,0.041,-0.007,0.069,102.0,100.0,98.0,13.3,1505.2,327.0,-0.8,1.9,2470.774,13.28,0.041,99.7
2022-04-11T09:43:03,42.805,6.029,0.047,-0.027,-0.005,101.0,100.0,99.0,13.4,1505.2,328.1,-0.7,1.8,2470.752,13.28,0.054,119.9
2022-04-11T09:46:03,42.805,6.029,0.026,-0.026,0.015,100.0,100.0,101.0,13.4,1505.2,322.2,-0.8,1.8,2470.717,13.28,0.036,135.0
2022-04-11T09:49:03,42.805,6.029,0.034,-0.046,-0.022,102.0,102.0,99.0,13.3,1505.2,326.6,-0.8,1.8,2470.739,13.28,0.057,143.5
2022-04-11T09:52:03,42.805,6.029,0.03,-0.027,-0.013,101.0,103.0,101.0,13.4,1505.2,326.3,-0.8,1.8,2470.74,13.28,0.04,132.0
2022-04-11T09:55:03,42.805,6.029,0.033,-0.034,0.018,101.0,101.0,100.0,13.4,1505.2,330.8,-0.7,1.8,2470.765,13.28,0.047,135.9
2022-04-11T09:58:03,42.805,6.029,0.063,-0.029,0.029,100.0,102.0,100.0,13.3,1505.2,325.5,-0.8,1.8,2470.742,13.28,0.069,114.7